This is the latest recevied weather packets stored in our database for station/object PY2UTU-WX. If no packets are shown the sender has not sent any weather packets the latest 10 day(s).
| Time | Temp. | Humidity | Pressure | Rain* | Wind** | Luminosity | Snow |
|---|---|---|---|---|---|---|---|
| 1777895844 | 20° C | 98% | 927.5 hPa | - | - | - | - |
| 1777894944 | 20° C | 98% | 927.2 hPa | - | - | - | - |
| 1777894044 | 18.33° C | 98% | 927 hPa | - | - | - | - |
| 1777893144 | 18.33° C | 98% | 926.9 hPa | - | - | - | - |
| 1777892244 | 18.33° C | 98% | 926.6 hPa | - | - | - | - |
| 1777891344 | 17.78° C | 98% | 926.5 hPa | - | - | - | - |
| 1777890444 | 17.78° C | 98% | 926.4 hPa | - | - | - | - |
| 1777889544 | 17.78° C | 98% | 926.5 hPa | - | - | - | - |
| 1777888644 | 17.22° C | 98% | 926.3 hPa | - | - | - | - |
| 1777887744 | 17.22° C | 98% | 926.2 hPa | - | - | - | - |
| 1777886844 | 17.78° C | 98% | 926.1 hPa | - | - | - | - |
| 1777885944 | 17.78° C | 98% | 925.9 hPa | - | - | - | - |
| 1777885044 | 17.78° C | 98% | 925.7 hPa | - | - | - | - |
| 1777884144 | 17.22° C | 98% | 925.7 hPa | - | - | - | - |
| 1777883244 | 17.22° C | 98% | 925.2 hPa | - | - | - | - |
| 1777882344 | 17.22° C | 98% | 925.2 hPa | - | - | - | - |
| 1777881444 | 17.22° C | 98% | 925 hPa | - | - | - | - |
| 1777880544 | 16.67° C | 98% | 925.3 hPa | - | - | - | - |
| 1777879644 | 16.67° C | 98% | 925.4 hPa | - | - | - | - |
| 1777878744 | 16.67° C | 98% | 925.6 hPa | - | - | - | - |
| 1777877844 | 16.67° C | 98% | 925.9 hPa | - | - | - | - |
| 1777876944 | 16.67° C | 98% | 926 hPa | - | - | - | - |
| 1777876044 | 17.22° C | 98% | 926 hPa | - | - | - | - |
| 1777875144 | 16.67° C | 98% | 926.2 hPa | - | - | - | - |
| 1777874244 | 17.78° C | 98% | 926.1 hPa | - | - | - | - |
* Rain since midnight (hover to see other rain measurements)
** Current wind speed in m/s (hover to see current wind gust speed)